EW3976 Weather Reports


time (UTC)temp
C
wind
direction
speed
KPH
gust
KPH
rain 1hr
cm
rain 24hr
cm
rain mn
cm
humidity
%
barometer
mb
20260505233517 16 338 1.6 4.8 0.00 0.00 0.00 71 1015.9
20260505232556 16 0.0 3.2 0.00 0.00 0.00 71 1016.0
20260505231515 16 293 1.6 3.2 0.00 0.00 0.00 71 1016.0
20260505230516 16 0.0 1.6 0.00 0.00 0.00 71 1016.0
20260505225516 16 23 1.6 3.2 0.00 0.00 0.00 71 1016.0
20260505224516 16 0 3.2 6.4 0.00 0.00 0.00 72 1016.0
20260505223555 16 315 1.6 3.2 0.00 0.00 0.00 72 1016.1
20260505221555 16 45 3.2 6.4 0.00 0.00 0.00 73 1016.2
20260505220515 16 338 4.8 8.0 0.00 0.00 0.00 73 1016.3
20260505215516 16 68 4.8 6.4 0.00 0.00 0.00 73 1016.3
20260505214515 16 338 3.2 3.2 0.00 0.00 0.00 74 1016.3
20260505213515 16 68 3.2 4.8 0.00 0.00 0.00 72 1016.5
20260505212515 16 0.0 0.0 0.00 0.00 0.00 73 1016.5
20260505211515 16 0.0 1.6 0.00 0.00 0.00 73 1016.5
20260505210515 16 0.0 1.6 0.00 0.00 0.00 73 1016.4
20260505205515 16 0.0 1.6 0.00 0.00 0.00 74 1016.4
20260505204516 16 248 1.6 3.2 0.00 0.00 0.00 74 1016.4
20260505203515 16 338 8.0 8.0 0.00 0.00 0.00 74 1016.4
20260505202517 15 23 4.8 9.7 0.00 0.00 0.00 75 1016.4
20260505201516 15 23 1.6 4.8 0.00 0.00 0.00 75 1016.5
20260505200515 15 248 3.2 4.8 0.00 0.00 0.00 74 1016.6
20260505195556 16 68 4.8 4.8 0.00 0.00 0.00 73 1016.7
20260505194555 16 0.0 0.0 0.00 0.00 0.00 74 1016.7
20260505193515 15 0.0 0.0 0.00 0.00 0.00 74 1016.9
20260505192555 15 248 3.2 4.8 0.00 0.00 0.00 74 1016.9
20260505191517 15 0.0 1.6 0.00 0.00 0.00 73 1016.8
20260505190515 15 135 3.2 3.2 0.00 0.00 0.00 74 1016.8
20260505185516 15 135 1.6 1.6 0.00 0.00 0.00 74 1016.7
20260505184555 14 23 3.2 4.8 0.00 0.00 0.00 76 1016.7
20260505183515 15 315 4.8 8.0 0.00 0.00 0.00 75 1016.7
20260505182515 14 45 3.2 4.8 0.00 0.00 0.00 75 1016.8
20260505181555 14 23 4.8 6.4 0.00 0.00 0.00 75 1016.8
20260505180515 14 23 6.4 9.7 0.00 0.00 0.00 74 1016.7
20260505175534 14 0 4.8 8.0 0.00 0.00 0.00 73 1016.6
20260505174515 14 0.0 0.0 0.00 0.00 0.00 72 1016.6
20260505173555 15 0.0 0.0 0.00 0.00 0.00 71 1016.3
20260505172515 15 0.0 0.0 0.00 0.00 0.00 72 1016.3
20260505171515 14 0.0 0.0 0.00 0.00 0.00 72 1016.2
20260505170515 14 0.0 0.0 0.00 0.00 0.00 72 1016.2
20260505165517 14 0.0 0.0 0.00 0.00 0.00 73 1016.2
20260505164515 14 0.0 0.0 0.00 0.00 0.00 73 1016.2
20260505163555 14 0.0 0.0 0.00 0.00 0.00 74 1016.0
20260505162515 13 0.0 0.0 0.00 0.00 0.00 76 1016.1
20260505161515 13 0.0 0.0 0.00 0.00 0.00 76 1016.1
20260505160515 13 0.0 0.0 0.00 0.00 0.00 76 1016.0
20260505152515 12 0.0 0.0 0.00 0.00 0.00 77 1015.9
20260505151635 12 0.0 0.0 0.00 0.00 0.00 78 1015.8
20260505150515 12 0.0 0.0 0.00 0.00 0.00 78 1015.8
20260505140557 12 0.0 0.0 0.00 0.00 0.00 81 1015.4
20260505124517 11 0.0 0.0 0.00 0.00 0.00 82 1015.2
20260505123557 11 0.0 0.0 0.00 0.00 0.00 82 1015.3
20260505122517 11 0.0 0.0 0.00 0.00 0.00 82 1015.3
20260505121517 11 0.0 0.0 0.00 0.00 0.00 82 1015.3
20260505120517 11 0.0 0.0 0.00 0.00 0.00 82 1015.3
20260505115517 11 0.0 0.0 0.00 0.00 0.00 81 1015.3
20260505114517 11 0.0 0.0 0.00 0.00 0.00 82 1015.4
20260505113517 12 0.0 0.0 0.00 0.00 0.00 81 1015.4
20260505112516 12 338 1.6 3.2 0.00 0.00 0.00 81 1015.3
20260505111517 12 338 1.6 1.6 0.00 0.00 0.00 80 1015.4
20260505110518 12 0 1.6 1.6 0.00 0.00 0.00 79 1015.3
20260505101517 12 0.0 1.6 0.00 0.00 0.00 77 1015.3
20260505100557 12 0.0 3.2 0.00 0.00 0.00 77 1015.4
20260505095557 12 0.0 0.0 0.00 0.00 0.00 76 1015.5
20260505094517 12 315 1.6 4.8 0.00 0.00 0.00 76 1015.5
20260505093516 12 315 1.6 1.6 0.00 0.00 0.00 76 1015.7
20260505092517 12 338 6.4 8.0 0.00 0.00 0.00 74 1015.6
20260505091502 12 270 3.2 3.2 0.00 0.00 0.00 74 1015.7
20260505091317 12 270 1.6 6.4 0.00 0.00 0.00 73 1015.6
20260505090317 12 315 4.8 8.0 0.00 0.00 0.00 72 1015.8
20260505085317 12 315 6.4 9.7 0.00 0.00 0.00 72 1015.9
20260505084316 12 315 11.3 16.1 0.00 0.00 0.00 72 1015.9
20260505083316 12 315 8.0 11.3 0.00 0.00 0.00 72 1016.1
20260505082356 12 293 3.2 4.8 0.00 0.00 0.00 72 1016.1
20260505081316 12 315 9.7 12.9 0.00 0.00 0.00 72 1016.1
20260505080316 12 338 3.2 4.8 0.00 0.00 0.00 73 1016.1
20260505075357 12 315 11.3 17.7 0.00 0.00 0.00 74 1016.2
20260505074316 12 315 11.3 14.5 0.00 0.00 0.00 76 1016.1
20260505073316 12 315 3.2 4.8 0.00 0.00 0.00 77 1016.1
20260505072316 12 315 6.4 8.0 0.00 0.00 0.00 77 1016.1
20260505071316 12 315 9.7 12.9 0.00 0.00 0.00 77 1015.9
20260505070317 12 315 6.4 11.3 0.00 0.00 0.00 79 1015.8
20260505065316 13 315 8.0 9.7 0.00 0.00 0.00 81 1015.8
20260505064316 13 315 3.2 4.8 0.00 0.00 0.00 81 1015.8
20260505063316 13 338 3.2 4.8 0.00 0.00 0.00 81 1015.8
20260505062319 13 315 3.2 6.4 0.00 0.00 0.00 81 1015.6
20260505061320 13 293 1.6 3.2 0.00 0.00 0.00 80 1015.6
20260505060356 13 0.0 0.0 0.00 0.00 0.00 80 1015.5
20260505055316 13 315 3.2 6.4 0.00 0.00 0.00 80 1015.6
20260505054316 13 315 6.4 9.7 0.00 0.00 0.00 79 1015.8
20260505053316 13 338 4.8 8.0 0.00 0.00 0.00 79 1015.7
20260505052316 13 315 11.3 14.5 0.00 0.00 0.00 78 1016.1
20260505050316 13 338 6.4 9.7 0.00 0.00 0.00 77 1016.1
20260505041316 14 315 9.7 12.9 0.00 0.00 0.00 75 1015.6
20260505040316 14 315 8.0 12.9 0.00 0.00 0.00 74 1015.4
20260505035316 14 315 8.0 11.3 0.00 0.00 0.00 72 1015.3
20260505034316 15 315 6.4 8.0 0.00 0.00 0.00 71 1015.2
20260505033316 15 338 3.2 4.8 0.00 0.00 0.00 70 1015.0
20260505032315 15 293 4.8 6.4 0.00 0.00 0.00 69 1014.8
20260505031316 15 315 8.0 12.9 0.00 0.00 0.00 68 1014.7
20260505030315 15 315 4.8 8.0 0.00 0.00 0.00 68 1014.8
20260505025316 15 0 4.8 9.7 0.00 0.00 0.00 67 1014.8
20260505024315 15 315 11.3 14.5 0.00 0.00 0.00 66 1014.8
20260505023316 15 338 8.0 12.9 0.00 0.00 0.00 65 1014.7
20260505022316 15 338 6.4 12.9 0.00 0.00 0.00 64 1014.7
20260505021316 16 338 8.0 11.3 0.00 0.00 0.00 63 1014.8
20260505020316 16 338 8.0 11.3 0.00 0.00 0.00 64 1014.5
20260505015316 16 338 8.0 17.7 0.00 0.00 0.00 64 1014.5
20260505014316 16 23 16.1 20.9 0.00 0.00 0.00 63 1014.5
20260505013316 16 0 6.4 9.7 0.00 0.00 0.00 64 1014.5
20260505012436 16 23 4.8 8.0 0.00 0.00 0.00 65 1014.6
20260505011316 16 0 8.0 12.9 0.00 0.00 0.00 66 1014.7
20260505010315 16 315 11.3 14.5 0.00 0.00 0.00 66 1014.8
20260505005316 16 315 11.3 19.3 0.00 0.00 0.00 66 1014.8
20260505004316 16 338 6.4 11.3 0.00 0.00 0.00 67 1014.9
20260505003315 16 315 11.3 14.5 0.00 0.00 0.00 67 1014.9
20260505002355 16 315 3.2 4.8 0.00 0.00 0.00 67 1014.9
20260505001356 16 270 4.8 9.7 0.00 0.00 0.00 67 1015.0
20260505000315 16 293 8.0 12.9 0.00 0.00 0.00 67 1014.9
20260504235316 16 293 3.2 6.4 0.00 0.00 0.00 70 1014.9